www.pogodaiklimat.ru
Время
(UTC), дата
10 9.12
11 9.12
12 9.12
13 9.12
14 9.12
15 9.12
16 9.12
17 9.12
18 9.12
19 9.12
20 9.12
21 9.12
22 9.12
23 9.12
00 10.12
01 10.12
02 10.12
03 10.12
04 10.12
05 10.12
06 10.12
07 10.12
08 10.12
09 10.12
10 10.12
11 10.12
12 10.12
13 10.12
14 10.12
15 10.12
16 10.12
17 10.12
18 10.12
19 10.12
20 10.12
21 10.12
22 10.12
23 10.12
00 11.12
01 11.12
02 11.12
03 11.12
04 11.12
05 11.12
06 11.12
07 11.12
08 11.12
09 11.12
10 11.12
11 11.12
12 11.12
13 11.12
14 11.12
15 11.12
16 11.12
17 11.12
18 11.12
19 11.12
20 11.12
21 11.12
22 11.12
23 11.12
00 12.12
01 12.12
02 12.12
03 12.12
04 12.12
05 12.12
06 12.12
07 12.12
08 12.12
09 12.12
10 12.12
11 12.12
12 12.12
13 12.12
14 12.12
15 12.12
16 12.12
17 12.12
18 12.12
19 12.12
20 12.12
21 12.12
22 12.12
23 12.12
00 13.12
01 13.12
02 13.12
03 13.12
04 13.12
05 13.12
06 13.12
07 13.12
08 13.12
09 13.12
10 13.12
11 13.12
12 13.12
13 13.12
14 13.12
15 13.12
16 13.12
17 13.12
18 13.12
19 13.12
20 13.12
21 13.12
22 13.12
23 13.12
00 14.12
01 14.12
02 14.12
03 14.12
04 14.12
05 14.12
06 14.12
07 14.12
08 14.12
09 14.12
10 14.12
11 14.12
12 14.12
13 14.12
14 14.12
15 14.12
16 14.12
17 14.12
18 14.12
19 14.12
20 14.12
21 14.12
22 14.12
23 14.12
00 15.12
01 15.12
02 15.12
03 15.12
04 15.12
05 15.12
06 15.12
07 15.12
08 15.12
09 15.12
10 15.12
11 15.12
12 15.12
13 15.12
14 15.12
15 15.12
16 15.12
17 15.12
18 15.12
19 15.12
20 15.12
21 15.12
22 15.12
23 15.12
00 16.12
01 16.12
02 16.12
03 16.12
04 16.12
05 16.12
06 16.12
07 16.12
08 16.12
09 16.12
Ветер
(напр.,м/с)
Видим. Явления Облачность Т
(С)
Тd
(С)
f
(%)
Тe
(С)
Тes
(С)
Комфортность P
(гПа)
Po
(гПа)
Тmin
(С)
Tmax
(С)
R
(мм)
R24
(мм)
S
(см)
Ю 3-4
{4}
40 км 9/9 1230 м
[Sc]
+8.4 +5.0 79 +6 +6 тепло 1014.3 985.4 0.0
Ю 3 20 км слаб. ливневой дождь 9/9 900 м
[Cu Sc]
+8.7 +5.1 78 +7 +7 тепло 1014.2 985.3 0.2
ЮЗ 5
{11}
40 км в посл. час дождь {ливн. осадки} 9/9 800 м
[Cu Sc]
+9.2 +5.6 78 +6 +6 тепло 1013.9 985.1 0.4
ЮЗ 3 15 км слаб. дождь 9/9 900 м
[Cu Sc]
+8.8 +5.5 80 +6 +6 тепло 1013.9 985.0 0.0
З 2 30 км в посл. час дождь 9/8 1080 м
[Sc Ac As]
+7.9 +5.9 87 +6 +7 тепло 1014.5 985.5 2
СЗ 5-4
{9}
30 км {дождь} 9/9 1000 м
[Sc]
+8.9 +4.9 76 +5 +5 тепло 1014.8 985.9 2
СЗ 5 7000 м слаб. ливневой дождь 9/6 900 м
[Cu med, cong Ac As]
+7.7 +5.0 83 +4 +4 тепло 1016.2 987.2 1
СЗ 4-5
{7}
40 км в посл. час ливневой дождь 9/9 900 м
[Sc]
+7.2 +4.2 81 +4 +4 тепло 1017.7 988.6 0.0
СЗ 7
{11}
40 км {ливн. осадки, дождь} 9/9 1300 м
[Sc]
+7.0 +4.0 81 +2 +2 по сезону 1018.8 989.6 +6.9 +9.7 1
С 5 40 км в посл. час ливневой дождь 9/6 700 м
[Cu med, cong Ac cuf]
+6.6 +3.7 82 +3 +3 тепло 1020.3 991.0 0.0
СЗ 4 40 км 10/8 960 м
[]
+6.6 +3.6 81 +3 +3 тепло 1021.5 992.2
СЗ 6
{13}
40 км в посл. час ливневой дождь 9/6 600 м
[Cu Sc Ac cuf]
+5.6 +2.9 83 +1 +1 по сезону 1022.9 993.4 0.4
СЗ 4 40 км 9/6 600 м
[Cu Sc Ac cuf]
+5.9 +2.7 80 +2 +2 тепло 1023.9 994.4
СЗ 4-5
{5}
40 км 9/9 1300 м
[Sc]
+5.7 +3.0 83 +2 +2 тепло 1024.6 995.1
СЗ 8
{12}
50 км {ливн. осадки, дождь} 8/5 1300 м
[Sc Ac As]
+5.4 +2.4 81 -0 -0 по сезону 1025.3 995.7
СЗ 4-6
{7}
45 км н/о +5.2 +2.0 80 +1 +1 тепло 1026.1 996.5
СЗ 4-6
{7}
50 км 5/5 1000 м
[Sc]
+4.9 +1.4 78 +1 +1 тепло 1027.2 997.5
СЗ 7-5
{11}
50 км 9/9 1140 м
[Sc]
+5.1 +1.4 77 -0 -0 по сезону 1027.9 998.2
СЗ 4-5
{5}
40 км н/о +4.6 +0.9 77 0 0 по сезону 1028.3 998.6
СЗ 3-4
{5}
50 км 5/5 1350 м
[Sc]
+4.1 +0.8 79 +1 +1 тепло 1029.0 999.2
СВ 3
{9}
40 км 4/4 800 м
[Sc]
+3.1 +0.3 82 -0 -0 по сезону 1029.8 999.9 +3.1 +7.2 3.4
С 2-3
{3}
35 км н/о +2.4 -0.2 83 -1 -1 по сезону 1029.8 999.8
СЗ 2-3
{3}
27 км н/о +2.6 +0.7 87 -1 -1 тепло 1030.4 1000.4
С 5-3
{9}
19 км н/о +4.0 +0.9 80 -1 -1 прохладно 1030.4 1000.5 0
С 3-4
{4}
19 км н/о +5.0 +1.3 77 +2 +2 по сезону 1030.0 1000.3
С 3-5
{5}
27 км н/о +6.0 +1.5 73 +3 +3 тепло 1029.4 999.8
С 5-4
{9}
28 км н/о +6.5 +1.0 68 +3 +3 по сезону 1028.3 998.8 0
С 3-4
{5}
30 км н/о +6.7 +0.1 63 +4 +4 по сезону 1027.8 998.3
С 2-3
{4}
19 км н/о +6.7 +0.4 64 +5 +5 тепло 1026.8 997.3
С 3-3
{7}
35 км н/о +6.3 +0.4 66 +3 +3 по сезону 1026.3 996.8 0
С 1-2
{3}
30 км н/о +4.6 +0.2 73 +3 +3 по сезону 1025.8 996.1
СЗ 1-2
{2}
25 км н/о +3.4 -0.3 77 +3 +3 тепло 1026.0 996.2
С 2
{4}
23 км н/о +2.6 -0.5 80 -1 -1 прохладно 1025.8 995.9 +2.1 +6.8 0
С 1-1
{2}
20 км ясно +1.8 -0.5 85 +1 +1 по сезону 1025.7 995.7
СВ 1-1
{1}
20 км 4/0
[]
+1.5 -0.7 85 +1 +1 тепло 1025.3 995.3
штиль 0-1
{3}
20 км ясно +1.5 -0.7 85 0 0 по сезону 1024.5 994.5
ЮВ 2-3
{3}
20 км 3/0
[]
+1.1 -0.8 87 -2 -2 по сезону 1023.7 993.7
ЮВ 2-3
{3}
14 км н/о +1.4 -0.5 87 -2 -2 по сезону 1023.3 993.4
ЮЗ 1
{5}
2000 м дымка 9/0
[Ac As Ci sp]
+0.7 -0.9 89 0 0 по сезону 1022.5 992.5
ЮВ 2 7000 м 9/0
[Ac As]
+0.8 -0.7 90 -3 -3 по сезону 1021.7 991.7
ЮВ 2 13 км 10/0
[As trans Cs]
+1.6 -0.8 84 -1 -1 тепло 1021.1 991.2
ЮВ 2
{6}
20 км 10/0
[As trans Cs]
+2.3 -1.0 79 -0 -0 по сезону 1020.6 990.8
ЮВ 2-3
{3}
20 км 9/0
[Ac trans]
+2.2 -1.1 79 -0 -0 по сезону 1019.8 990.0
ЮВ 2-3
{4}
20 км 9/0
[Ac trans]
+2.1 -0.8 81 -1 -1 тепло 1018.9 989.2
ЮВ 3
{4}
20 км 9/0
[Ac trans]
+2.2 -0.7 81 -2 -2 по сезону 1018.4 988.7 +0.4 +2.6
Ю 1-3
{3}
30 км 9/0
[Ac trans]
+2.4 -0.7 80 +1 +1 тепло 1017.3 987.6
Ю 2-2
{3}
40 км 9/0
[Ac trans]
+3.0 -0.8 76 +1 +1 тепло 1016.9 987.3
З 3-2
{5}
40 км 9/0 2000 м
[Ac trans]
+2.7 +0.3 84 -1 -1 прохладно 1016.8 987.2
штиль 0 10 км слаб. дождь 9/9 1500 м
[Cu hum]
+3.1 +0.5 83 +2 +2 по сезону 1015.8 986.3 0.0
Ю 1-2
{2}
15 км слаб. дождь 10/10 1500 м
[]
+4.1 +1.5 83 +3 +3 тепло 1014.7 985.3 0.2
В 1
{3}
10 км слаб. дождь 9/9 1000 м
[Cu Sc]
+4.0 +2.2 88 +2 +3 по сезону 1014.2 984.8 0.8
Ю 1 4000 м дождь 9/9 1050 м
[Cu Sc]
+4.6 +3.1 90 +4 +5 по сезону 1013.8 984.5 0.8
ЮВ 1 4000 м дождь 10/10 930 м
[Cu Sc]
+4.5 +3.9 96 +3 +3 тепло 1014.2 984.9 3
СЗ 2
{5}
3000 м дождь 10/10 330 м
[Cu Sc]
+4.2 +3.8 97 +1 +1 по сезону 1015.3 985.9 7
В 2 4500 м дождь 10/10 240 м
[Cu Sc]
+4.4 +4.1 98 +2 +2 по сезону 1015.7 986.3 2
В 2 4500 м дождь 10/10 600 м
[Cu Sc]
+4.7 +4.6 99 +2 +2 тепло 1015.9 986.6 1
Ю 3
{5}
13 км в посл. час дождь 9/1 1200 м
[Sc Ac trans]
+4.9 +3.7 92 +1 +1 по сезону 1015.5 986.2 +2.1 +5.4 3
ЮВ 3-3
{3}
20 км 9/0
[Ac trans]
+4.7 +3.7 93 +1 +1 по сезону 1014.6 985.3
ЮВ 2 20 км 9/1 1200 м
[Sc Ac trans]
+4.1 +3.1 93 +2 +2 тепло 1014.1 984.7
ЮВ 5-4
{7}
15 км 4/0
[Ci fib]
+3.2 +2.3 94 -2 -2 по сезону 1013.0 983.6
ЮВ 3 15 км 6/1 2000 м
[Sc Ac trans Ci fib]
+3.3 +2.1 92 -0 -0 по сезону 1012.0 982.6
ЮЗ 1-2
{3}
15 км 9/9 1500 м
[Sc]
+3.3 +2.0 91 +2 +2 тепло 1011.8 982.4
Ю 4
{7}
35 км в посл. час дождь 9/9 1380 м
[Sc]
+4.1 +2.8 91 -1 -1 по сезону 1011.6 982.3 0.0
З 2 20 км 9/9 270 м
[Sc]
+4.0 +2.8 92 +2 +2 тепло 1011.9 982.6 0.2
ЮЗ 1 35 км 9/4 1500 м
[Sc Ac trans]
+3.9 +2.4 90 +4 +4 тепло 1012.3 983.0 0.0
Ю 2
{5}
25 км 8/8 1000 м
[Sc]
+2.8 +1.8 93 0 0 по сезону 1012.6 983.1 0.2
В 1 25 км 8/8 1000 м
[Sc Ac trans]
+2.7 +0.1 83 +1 +1 тепло 1012.9 983.4
Ю 1 40 км 9/9 1000 м
[Sc]
+3.8 +0.5 79 +2 +2 тепло 1012.9 983.5
ЮВ 3
{5}
30 км 9/9 1200 м
[Sc]
+3.6 +1.6 87 -0 -0 по сезону 1013.0 983.6 +2.4 +5.0 10.8
ЮВ 2-3
{3}
30 км 9/9 1200 м
[Sc]
+3.6 +1.0 83 +1 +1 тепло 1012.8 983.4
ЮВ 1-2
{2}
30 км 9/9 1200 м
[Sc]
+4.0 +0.7 79 +3 +3 тепло 1012.5 983.2
Ю 2
{4}
30 км 9/9 1500 м
[Sc]
+4.6 +0.9 77 +2 +2 по сезону 1012.2 982.9
Ю 2-2
{3}
40 км 6/6 1500 м
[Sc]
+5.7 +0.8 71 +4 +5 тепло 1011.9 982.8
ЮВ 2-3
{3}
40 км 8/8 1350 м
[Sc]
+6.2 +1.5 72 +5 +5 тепло 1010.7 981.6
ЮВ 3
{4}
40 км 3/3 1300 м
[Cu hum Ac trans]
+7.1 -1.6 54 +5 +7 по сезону 1009.0 980.1
Ю 2 50 км 3/1 1300 м
[Cu hum Ac trans]
+7.6 -1.9 51 +7 +8 тепло 1007.6 978.8
Ю 2 50 км 5/3
[Cu hum Ac trans Ci fib]
+7.1 -1.8 53 +5 +6 тепло 1006.3 977.4
ЮВ 5
{8}
50 км 8/6 1500 м
[Sc Ac trans Ci fib]
+6.9 -2.3 52 +3 +3 по сезону 1004.7 975.9
ЮВ 3 50 км 9/9 1500 м
[]
+6.3 -1.6 57 +4 +4 тепло 1003.1 974.3
Ю 3 50 км 9/9 1500 м
[]
+5.8 -1.6 59 +3 +3 тепло 1001.7 972.8
Ю 6
{11}
50 км 9/3 1500 м
[Sc Ac As]
+6.0 -0.7 62 +2 +2 по сезону 1000.2 971.4 +3.5 +7.8
Ю 5-8
{8}
10 км слаб. дождь 9/9 1080 м
[Sc]
+5.2 +1.1 75 +1 +1 по сезону 999.4 970.6 0.2
Ю 4-7
{9}
8000 м слаб. дождь 9/9 1230 м
[Sc]
+3.9 +1.6 85 -1 -1 по сезону 998.3 969.4 3
Ю 8-7
{15}
12 км слаб. дождь 9/9 1230 м
[Sc]
+4.0 +2.2 88 -2 -2 по сезону 997.6 968.7 3
Ю 5 15 км слаб. дождь 9/9 450 м
[Cu Sc]
+4.4 +2.4 87 -1 -1 по сезону 996.7 967.9 0.8
Ю 10-15
{17}
15 км в посл. час дождь 9/9 500 м
[Cu Sc]
+5.4 +3.1 85 -1 -1 тепло 995.7 967.0 0.0
Ю 9-15
{18}
30 км {дождь} 9/9 1260 м
[Sc]
+5.8 +3.5 85 0 0 по сезону 994.3 965.7 0.8
Ю 5-8
{8}
30 км 9/9 1500 м
[Sc]
+6.1 +3.9 86 +2 +2 тепло 992.9 964.4
Ю 5 30 км слаб. дождь 10/10 450 м
[Cu Sc]
+6.1 +4.6 90 +2 +2 тепло 992.0 963.5 0.4
Ю 10
{16}
20 км в посл. час дождь 10/10 330 м
[Cu Sc]
+6.4 +4.9 90 0 0 по сезону 990.1 961.7 2
Ю 5 8000 м дождь 10/10 360 м
[Cu Sc]
+6.5 +5.0 90 +2 +2 тепло 988.5 960.1 0.6
Ю 6 12 км слаб. дождь 10/10 330 м
[Cu Sc]
+6.8 +5.3 90 +2 +2 тепло 986.9 958.6 1
Ю 11-16
{20}
40 км 9/9 300 м
[]
+6.9 +5.4 90 +1 +1 по сезону 986.3 958.0 +3.7 +6.9 3 9.6 0
З 5 40 км в посл. час дождь 9/9 400 м
[Cu Sc]
+7.6 +5.4 86 +4 +4 тепло 989.7 961.4 1
З 3 60 км 6/6 1000 м
[Cu Sc]
+7.4 +4.0 79 +5 +5 тепло 991.4 963.0 0.0
З 3
{10}
60 км {дождь} 6/6 1080 м
[Cu Sc]
+8.4 +4.0 74 +6 +6 тепло 992.6 964.3 1
З 3 60 км 1/1 1200 м
[Cu Sc]
+9.7 +3.2 64 +8 +10 тепло 993.7 965.5
З 3 30 км осадки на расстоянии 5/5 750 м
[Cu Sc]
+9.9 +0.8 53 +8 +9 тепло 993.8 965.6
СЗ 7
{17}
40 км в посл. час ливневой дождь 9/9 750 м
[Cu Sc]
+9.5 +1.4 57 +6 +6 по сезону 994.3 966.0 0.0
З 3 40 км {ливн. осадки, дождь} 10/5 1350 м
[]
+9.0 +3.4 68 +7 +8 тепло 995.0 966.7 0.0
З 4 40 км осадки на расстоянии 9/9 1200 м
[Cu Sc]
+9.1 +1.3 58 +7 +7 тепло 995.6 967.3 0.0
З 9
{14}
40 км {ливн. осадки, дождь} 6/6 1500 м
[Cu Sc]
+8.7 +0.4 56 +4 +4 по сезону 996.8 968.4 0.0
СЗ 3 40 км в посл. час ливневой дождь 9/9 1000 м
[Cu Sc]
+6.8 +2.3 73 +4 +4 тепло 998.4 969.8 0.0
СЗ 1 20 км слаб. ливневой дождь 9/9 900 м
[Cu Sc]
+6.4 +3.2 80 +5 +5 тепло 1000.5 971.8 0.0
В 5
{7}
50 км в посл. час ливневой дождь 5/3 600 м
[Cu Sc Ac und]
+4.4 +2.7 89 -0 -0 по сезону 1001.1 972.1 +4.4 +10.4 0.0
ЮВ 5
{8}
50 км 9/4 1300 м
[Sc Ac As]
+4.7 +3.0 89 -0 -0 по сезону 1001.4 972.5
ЮВ 4
{6}
40 км слаб. дождь 10/5 1000 м
[Sc Ac As]
+4.6 +2.9 89 +1 +1 тепло 1001.9 972.9 0.0
ЮВ 5-4
{7}
20 км слаб. дождь 10/9 900 м
[Sc]
+4.8 +3.3 90 0 0 по сезону 1002.4 973.4 0.4
ЮВ 3-4
{4}
6000 м слаб. дождь 10/9 900 м
[Sc]
+4.7 +3.5 92 +1 +1 тепло 1001.4 972.5 0.4
ЮВ 2 10 км слаб. дождь 10/9 900 м
[Sc]
+5.0 +4.1 94 +2 +2 тепло 1001.7 972.8 0.4
Ю 5
{9}
6000 м слаб. дождь 10/9 800 м
[Sc]
+5.4 +4.0 91 +1 +1 по сезону 1002.3 973.4 2
ЮВ 3-4
{5}
6000 м слаб. дождь 10/9 900 м
[Sc]
+5.2 +4.0 92 +2 +2 тепло 1002.0 973.1 0.6
ЮВ 2-3
{4}
3000 м дождь 10/10 800 м
[Sc]
+5.3 +4.4 94 +3 +3 тепло 1002.6 973.7 1
ЮВ 4-4
{8}
12 км слаб. дождь 10/10 1000 м
[Sc]
+5.9 +4.9 93 +2 +2 по сезону 1002.2 973.4 3
Ю 2 30 км слаб. дождь 10/10 1000 м
[Sc]
+6.5 +5.0 90 +4 +4 тепло 1002.7 973.9 0.6
Ю 3 50 км в посл. час дождь 9/6 900 м
[Sc Ci fib]
+6.8 +4.9 88 +4 +4 тепло 1002.7 974.0 0.0
Ю 6
{11}
7000 м дождь 9/9 1200 м
[Sc]
+7.0 +5.3 89 +3 +3 по сезону 1003.8 975.0 +4.2 +7.1 0.6 6.8
Ю 1 8000 м слаб. дождь 9/9 700 м
[Sc]
+6.6 +6.0 96 +5 +5 тепло 1005.9 977.0 2
Ю 2 18 км {дождь} 10/10 500 м
[]
+7.1 +6.4 95 +5 +5 тепло 1006.9 978.1 0.0
З 2
{6}
4000 м дождь {морось} 9/9 90 м
[Sc]
+7.4 +7.0 97 +5 +5 тепло 1008.8 980.0 3
ЮВ 4
{5}
15 км в посл. час дождь {морось} 9/9 150 м
[Sc]
+8.1 +7.7 97 +5 +5 тепло 1009.8 981.0 0.2
Ю 2 15 км 9/9 150 м
[Sc]
+9.4 +8.5 94 +8 +8 тепло 1010.1 981.4
Ю 2
{5}
8000 м слаб. дождь {морось} 9/9 180 м
[Cu Sc]
+9.4 +8.5 94 +8 +8 тепло 1010.4 981.7 0.2
ЮВ 1 9000 м слаб. дождь 9/9 300 м
[Cu Sc]
+10.5 +8.4 87 +10 +10 тепло 1010.1 981.5 0.2
ЮВ 2 12 км слаб. дождь 6/6 480 м
[Cu Sc]
+10.9 +7.8 81 +10 +11 тепло 1010.2 981.7 0.2
Ю 2
{5}
8000 м слаб. дождь 8/8 480 м
[Cu Sc]
+10.1 +9.0 93 +8 +9 тепло 1010.3 981.7 0.4
Ю 2 20 км {дождь} 5/5 180 м
[Cu Sc Ci fib]
+9.4 +8.3 93 +8 +8 тепло 1010.8 982.1 0.0
ЮВ 3 20 км 5/5 1500 м
[Sc Ci fib]
+9.0 +7.4 90 +7 +7 тепло 1010.8 982.1
Ю 4
{8}
30 км {дождь} 9/9 1500 м
[Sc]
+9.9 +7.7 86 +7 +7 тепло 1011.0 982.3 +6.5 +10.9 0.0
Ю 2-4
{5}
50 км 9/9 1500 м
[Sc]
+10.4 +8.2 86 +9 +9 тепло 1010.5 981.9
Ю 4 20 км слаб. дождь 9/6 1500 м
[Sc Ac As]
+11.2 +8.9 86 +9 +9 тепло 1010.2 981.7 0.2
Ю 8
{13}
50 км в посл. час дождь 9/5 1500 м
[Sc Ac As]
+11.8 +9.0 83 +8 +8 тепло 1010.0 981.6 0.2
Ю 4-6
{7}
50 км 9/9 1500 м
[Sc]
+11.9 +8.9 82 +10 +10 тепло 1010.0 981.6
Ю 3-4
{6}
50 км 9/9 1500 м
[Sc]
+12.2 +9.2 82 +11 +11 тепло 1010.2 981.8
Ю 5
{9}
50 км {дождь} 9/1 1500 м
[Sc Ac As]
+11.7 +8.9 83 +9 +9 тепло 1010.2 981.8
Ю 3 50 км 9/0
[Ac As]
+12.0 +8.8 81 +11 +11 тепло 1010.1 981.7
Ю 3 50 км 9/0
[Ac As]
+11.9 +8.7 81 +10 +10 тепло 1010.6 982.2
Ю 7
{9}
50 км 9/0 2000 м
[Ac As]
+11.7 +8.7 82 +9 +9 тепло 1009.8 981.4
Ю 3 50 км 9/0
[Ac As]
+12.0 +8.7 80 +10 +10 тепло 1009.5 981.1
Ю 2 50 км 9/0
[Ac As]
+11.3 +8.5 83 +10 +10 тепло 1010.1 981.6
Ю 6
{9}
50 км 8/0
[Ac As Ci fib]
+10.8 +8.4 85 +8 +8 тепло 1010.1 981.6 +9.8 +12.3 4.2
Ю 3 50 км 9/0
[Ac As Ci sp]
+11.2 +8.2 82 +10 +10 тепло 1010.5 982.0
Ю 3 50 км 9/0
[Ac As Ci sp]
+10.7 +7.9 83 +9 +9 тепло 1010.9 982.3
Ю 4
{8}
50 км 9/0
[Ac As Ci sp]
+11.8 +8.6 81 +10 +10 тепло 1011.2 982.7
ЮЗ 3 50 км 9/0
[Ac As Ci sp]
+13.1 +9.2 77 +12 +13 тепло 1011.4 983.1
Ю 3 50 км 9/0
[Ac As Ci sp]
+14.3 +9.1 71 +13 +15 тепло 1010.9 982.7
Ю 7
{11}
50 км 9/0
[Ac As Ci sp]
+16.2 +8.9 62 +15 +15 тепло 1010.3 982.3
Ю 3 60 км 9/0
[Ac trans Ci sp]
+15.6 +8.3 62 +15 +17 тепло 1010.2 982.1
Ю 3 60 км 9/0
[Ac lent Ci sp]
+16.0 +8.7 62 +16 +16 тепло 1009.8 981.8
Ю 5
{9}
60 км 8/0
[Ac trans Ci fib]
+15.7 +8.4 62 +15 +15 тепло 1009.9 981.8
Ю 4 60 км 5/0
[Ac trans Ci fib]
+14.5 +8.7 68 +13 +13 тепло 1009.9 981.7
Ю 4 60 км 5/0
[Ac trans Ci sp]
+13.7 +8.3 70 +12 +12 тепло 1010.4 982.1
ЮВ 3
{11}
60 км 9/0
[Ac trans Ci sp]
+12.2 +8.1 76 +11 +11 тепло 1011.4 983.0 +10.6 +16.4
ЮВ 3 60 км 9/0
[Ac trans Ci sp]
+12.7 +8.4 75 +12 +12 тепло 1011.2 982.8
ЮВ 3 60 км 9/0
[Ac trans Ci sp]
+11.5 +8.4 81 +10 +10 тепло 1011.4 982.9
ЮВ 4
{7}
60 км 9/3 1200 м
[Sc Ac trans Ci sp]
+12.1 +8.0 76 +10 +10 тепло 1011.8 983.3
ЮВ 2 50 км 10/1 1200 м
[Sc Ci sp]
+11.7 +7.6 76 +11 +11 тепло 1011.7 983.2
ЮВ 2 50 км 10/1 1380 м
[Sc Ci sp]
+12.0 +7.1 72 +11 +11 тепло 1012.1 983.6
Ю 5
{11}
50 км 10/1 1380 м
[Sc Ci sp]
+12.7 +7.2 69 +11 +11 тепло 1011.8 983.4
Ю 3-5
{5}
50 км 10/0
[]
+12.4 +6.9 69 +11 +11 тепло 1011.3 982.9
Ю 3 50 км 10/3 1300 м
[Sc Ci sp]
+12.6 +6.4 66 +11 +11 тепло 1011.1 982.7
Ю 7-5
{10}
45 км н/о +12.3 +6.3 67 +10 +10 тепло 1010.5 982.1 0
Ю 3 50 км 10/1 1300 м
[Sc Ci sp]
+12.8 +6.2 64 +12 +12 тепло 1009.8 981.5
Ю 3 45 км 9/9
[]
+12.6 +7.1 69 +12 +12 тепло 1009.7 981.3
Ю 5
{9}
50 км 10/0
[Ci sp]
+13.0 +6.8 66 +11 +11 тепло 1009.5 981.2 +11.2 +13.1
ЮВ 2 50 км 10/1 1500 м
[Cu hum Ci sp]
+12.9 +6.7 66 +13 +13 тепло 1009.7 981.4
Ю 2 50 км 10/1 1500 м
[Cu hum Ci sp]
+13.2 +7.0 66 +13 +13 тепло 1009.9 981.6
Ю 6
{14}
50 км 10/1 1500 м
[Cu hum Ci sp]
+13.3 +7.3 67 +11 +12 тепло 1010.2 981.9
Местоположение метеостанции Лион (Франция): широта 45.73 долгота 5.08 высота над уровнем моря 240 м.
В архиве по умолчанию представлена погода в Лионе за последнюю неделю. Архивные данные за месяц целиком и за предыдущие месяцы, начиная с января 2011 года, Вы можете получить, выбрав интересующий диапазон дат из раскрывающегося списка и нажав кнопку "Найти!".
*Определитесь, кто Вы:
Внимание! Время в таблицах - всемирное. Для получения местного времени необходимо прибавить поправку, которая равна 1 ч.
Смотрите также архив погоды в соседних городах и на ближайших метеорологических станциях:
Партнеры нашего сайта:      
Пояснения к столбцам:
  • Ветер - указаны скорость ветра в м/с - средняя за 10 мин, порывы в срок и между сроками (в фигурных скобках) и направление, откуда дует ветер: С - северный,
  • СВ - северо-восточный, В - восточный, ЮВ - юго-восточный, Ю - южный, ЮЗ - юго-западный, З - западный, СЗ - северо-западный.
  • Видимость - горизонтальная дальность видимости в метрах или километрах. При видимости от 1 до 10 км при отсутствии осадков обычно наблюдается дымка, при ухудшении видимости до 1 км и менее - туман. В сухую погоду видимость может ухудшаться дымом, пылью или мглою.
  • Явления - указаны атмосферные явления, наблюдавшиеся в срок или в последний час перед сроком; фигурными скобками обозначены явления, наблюдавшиеся между сроками (за 1-3 часа до срока); квадратными скобками обозначены град или гололедные отложения с указанием их диаметра в мм.
  • Облачность - указаны через наклонную черту общая и нижняя облачность в баллах и высота нижней границы облаков в метрах; квадратными скобками обозначены формы облаков: Ci - перистые, Cs - перисто-слоистые, Cc - перисто-кучевые, Ac - высококучевые, As - высокослоистые, Sc - слоисто-кучевые, Ns - слоисто-дождевые, Cu - кучевые, Cb - кучево-дождевые. Подробнее классификацию облаков см. в Атласе облаков (PDF).
  • T - Температура воздуха - температура, измеренная на высоте 2 м над землей.
  • Td - Температура точки росы - температура, при понижении до которой содержащийся в воздухе водяной пар достигнет насыщения.
  • f - Относительная влажность воздуха - влажноcть воздуха, измеренная на высоте 2 м над землей.
  • Te - Эффективная температура - температура, которую ощущает одетый по сезону человек в тени. Характеристика душности погоды. При расчете учитывается влияние влажности воздуха и скорости ветра на теплоощущения человека.
  • Tes - Эффективная температура на солнце - температура, которую ощущает человек, с поправкой на солнечный нагрев. Характеристика знойности погоды. Зависит от высоты солнца над горизонтом, облачности и скорости ветра. Ночью, в пасмурную погоду, а также при ветре 12 м/с и более поправка равна нулю.
  • P - Атмосферное давление - приведенное к уровню моря атмосферное давление.
  • Po - Атмосферное давление - измеренное на уровне метеостанции атмосферное давление.
  • Tmin - Минимальная температура - минимум температуры воздуха на высоте 2 м над землей.
  • Tmax - Максимальная температура - максимум температуры воздуха на высоте 2 м над землей.
  • R - Количество осадков - Количество выпавших осадков за период времени, мм. При наведении курсора мыши на число - период времени, за который выпало указанное количество осадков.
  • R24 - Количество осадков - Количество выпавших осадков за 24 часа, мм.
  • S - Снежный покров - Высота снежного покрова, см. При наведении курсора мыши на число - состояние снежного покрова и степень покрытия местности в баллах.